Date,TemperatureHighF,TemperatureAvgF,TemperatureLowF,DewpointHighF,DewpointAvgF,DewpointLowF,HumidityHigh,HumidityAvg,HumidityLow,PressureMaxIn,PressureMinIn,WindSpeedMaxMPH,WindSpeedAvgMPH,GustSpeedMaxMPH,PrecipitationSumIn
2013-2-1,5,-3,-10,-100,-100,-100,0,0,100,0.00,40.00,5,1,14,0.00
2013-2-2,14,1,-13,-100,-100,-100,0,0,100,0.00,40.00,3,0,6,0.00
2013-2-3,12,3,-11,-100,-100,-100,0,0,100,0.00,40.00,10,2,20,0.00
2013-2-4,16,-3,-20,-100,-100,-100,0,0,100,0.00,40.00,3,0,12,0.00
2013-2-5,23,10,-4,-100,-100,-100,0,0,100,0.00,40.00,12,2,17,0.14
2013-2-6,24,12,-5,-100,-100,-100,0,0,100,0.00,40.00,6,1,12,0.12
2013-2-7,24,20,17,-100,-100,-100,0,0,100,0.00,40.00,8,2,21,0.03
2013-2-8,26,12,1,-100,-100,-100,0,0,100,0.00,40.00,7,1,13,0.00
2013-2-9,31,18,-1,-100,-100,-100,0,0,100,0.00,40.00,10,3,20,0.00
2013-2-10,32,27,21,-100,-100,-100,0,0,100,0.00,40.00,9,3,20,0.60
2013-2-11,33,28,19,-100,-100,-100,0,0,100,0.00,40.00,6,1,14,0.39
2013-2-12,24,19,9,-100,-100,-100,0,0,100,0.00,40.00,7,2,13,0.01
2013-2-13,38,24,9,-100,-100,-100,0,0,100,0.00,40.00,5,1,8,0.00
2013-2-14,31,24,13,-100,-100,-100,0,0,100,0.00,40.00,7,2,14,0.03
2013-2-15,20,11,-1,-100,-100,-100,0,0,100,0.00,40.00,7,2,13,0.01
2013-2-16,17,3,-12,-100,-100,-100,0,0,100,0.00,40.00,5,0,10,0.00
2013-2-17,25,2,-20,-100,-100,-100,0,0,100,0.00,40.00,9,2,15,0.00
2013-2-18,38,30,20,-100,-100,-100,0,0,100,0.00,40.00,8,2,13,0.04
2013-2-19,26,12,3,-100,-100,-100,0,0,100,0.00,40.00,13,4,23,0.16
2013-2-20,20,10,2,-100,-100,-100,0,0,100,0.00,40.00,7,2,16,0.01
2013-2-21,28,15,-2,-100,-100,-100,0,0,100,0.00,40.00,6,2,14,0.00
2013-2-22,26,21,16,-100,-100,-100,0,0,100,0.00,40.00,8,2,14,0.10
2013-2-23,35,23,11,-100,-100,-100,0,0,100,0.00,40.00,2,0,7,0.01
2013-2-24,34,26,15,-100,-100,-100,0,0,100,0.00,40.00,3,0,7,0.01
2013-2-25,36,29,23,-100,-100,-100,0,0,100,0.00,40.00,7,1,9,0.00
2013-2-26,35,28,10,-100,-100,-100,0,0,100,0.00,40.00,8,3,17,0.00
2013-2-27,32,29,27,-100,-100,-100,0,0,100,0.00,40.00,13,6,25,0.00
2013-2-28,28,24,19,-100,-100,-100,0,0,100,0.00,40.00,12,6,22,0.00